Probability
3 3 0 0 0 0 0 3 3 0 0 0 0 0 0 0 0 0 0 0 61 90 94 100 100 100 100 100 100 100 100 100 100 100 100 90 77 61 16 3 0 0 0
3 0 0 0 0 0 0 0 0 0 0 0 0 0 0 0 0 0 0 0 0 77 94 100 100 100 100 100 100 100 97 97 100 97 97 94 90 65 32 6 0 0 0
0 3 3 0 0 0 0 0 0 0 0 0 0 0 0 0 0 0 0 0 0 0 45 94 97 100 100 100 100 100 100 97 97 97 81 74 61 52 16 6 3 0 0
13 10 3 3 0 0 0 0 0 0 0 0 0 0 0 0 0 0 0 0 0 0 0 61 94 97 97 100 100 100 100 100 97 94 90 65 48 26 3 0 3 0 0
26 10 6 6 0 0 0 0 3 0 0 0 0 0 0 0 0 0 0 0 0 0 0 0 45 90 94 100 100 100 100 100 97 97 97 81 58 32 6 0 0 0 0
10 6 6 3 6 6 6 6 6 0 0 0 0 0 0 0 0 0 0 0 0 0 0 0 0 0 19 77 90 100 100 100 100 94 90 87 77 48 10 0 0 0 0
13 6 3 6 10 6 6 6 6 3 0 0 0 0 0 0 0 0 0 0 0 0 0 0 0 0 0 0 3 61 77 81 90 97 87 84 77 61 6 3 0 0 0
29 29 16 13 13 16 16 6 0 6 6 0 0 0 0 0 0 0 0 0 0 0 0 0 0 0 0 0 0 0 6 35 55 71 61 55 45 39 3 0 0 0 0
32 35 29 19 13 10 13 6 3 3 0 0 0 0 0 0 0 0 0 0 0 0 0 0 0 0 0 0 0 0 0 0 3 19 35 42 32 3 0 0 3 0 0
13 16 6 6 6 3 6 6 3 3 3 3 0 0 0 0 0 0 0 0 0 0 0 0 0 0 0 0 0 0 0 0 0 0 6 16 16 0 0 0 3 0 0
3 0 6 6 3 0 0 0 3 3 0 3 0 0 0 0 0 0 0 0 0 0 0 0 0 0 0 0 0 0 0 0 0 0 0 6 6 6 0 0 3 3 0
3 0 0 0 3 0 0 0 0 0 0 0 0 0 0 0 0 0 0 0 0 0 0 0 0 0 0 0 0 0 0 0 0 0 0 0 0 3 0 0 0 0 0
0 0 0 0 0 0 0 0 0 0 0 0 0 0 0 0 0 0 0 0 0 0 0 0 0 0 0 0 0 0 0 0 0 0 0 0 0 0 0 0 0 0 0
0 0 0 0 0 0 0 0 0 0 0 0 0 0 0 0 0 0 0 0 0 0 0 0 0 0 0 0 0 0 0 0 0 0 0 0 0 0 0 0 0 0 0
0 0 0 0 0 0 0 0 0 0 0 0 0 0 0 0 0 0 0 0 0 0 0 0 0 0 0 0 0 0 0 0 0 0 0 0 0 0 0 0 0 0 0
0 0 0 0 0 0 0 0 0 0 0 0 0 0 0 0 0 0 0 0 0 0 0 0 0 0 0 0 0 0 0 0 0 0 0 0 0 0 0 0 0 0 0
0 0 0 0 0 0 0 0 0 0 0 0 0 0 0 0 0 0 0 0 0 0 0 0 0 0 0 0 0 0 0 0 0 0 0 0 0 0 0 0 0 0 0
0 0 0 0 0 0 0 0 0 0 0 0 0 0 0 0 0 0 0 0 0 0 0 0 0 0 0 0 0 0 0 0 0 0 0 0 0 0 0 0 0 0 0
0 0 0 0 0 0 0 0 0 0 0 0 0 0 0 0 0 0 0 0 0 0 0 0 0 0 0 0 0 0 0 0 0 0 0 0 0 0 0 0 0 0 0
0 0 0 0 0 0 0 0 0 0 0 0 0 0 0 0 0 0 0 0 0 0 0 0 0 0 0 0 0 0 0 0 0 0 0 0 0 0 0 0 0 0 0
0 0 0 0 0 0 0 0 0 0 0 0 0 0 0 0 0 0 0 0 0 0 0 0 0 0 0 0 0 0 0 0 0 0 0 0 0 0 0 0 0 0 0
0 0 0 0 0 0 0 0 0 0 0 0 0 0 0 0 0 0 0 0 0 0 0 0 0 0 0 0 0 0 0 0 0 0 0 0 0 0 0 0 0 0 0
0 0 0 0 0 0 0 0 0 0 0 0 0 0 0 0 0 0 0 0 0 0 0 0 0 0 0 0 0 0 0 0 0 0 0 0 0 0 0 0 0 0 0
0 0 0 0 0 0 0 0 0 0 0 0 0 0 0 0 0 0 0 0 0 0 0 0 0 0 0 0 0 0 0 0 0 0 0 0 0 0 0 0 0 0 0
0 0 0 0 0 0 0 0 0 0 0 0 0 0 0 0 0 0 0 0 0 0 0 0 0 0 0 0 0 0 0 0 0 0 0 0 0 0 0 0 0 0 0
0 0 0 0 0 0 0 0 0 0 0 0 0 0 0 0 0 0 0 0 0 0 0 0 0 0 0 0 0 0 0 0 0 0 0 0 0 0 0 0 0 0 0
Height
5904 5903 5902 5901 5900 5899 5897 5895 5894 5892 5891 5889 5887 5885 5883 5882 5880 5879 5878 5877 5877 5876 5875 5875 5874 5873 5873 5872 5872 5871 5871 5870 5869 5869 5868 5867 5866 5866 5866 5865 5865 5865 5865
5900 5899 5898 5897 5896 5895 5893 5892 5891 5889 5888 5886 5884 5881 5879 5877 5876 5874 5873 5872 5872 5871 5870 5870 5869 5869 5868 5868 5868 5868 5867 5867 5866 5865 5864 5864 5863 5862 5862 5861 5861 5861 5862
5895 5894 5893 5892 5891 5890 5889 5888 5887 5885 5884 5882 5880 5877 5875 5873 5871 5869 5868 5867 5866 5865 5865 5865 5864 5864 5864 5864 5863 5863 5863 5863 5862 5862 5861 5860 5859 5859 5858 5857 5857 5857 5857
5890 5889 5888 5887 5886 5885 5884 5883 5882 5880 5879 5877 5875 5873 5870 5868 5866 5864 5863 5861 5860 5859 5859 5859 5859 5859 5858 5859 5859 5859 5859 5859 5858 5858 5857 5856 5855 5855 5854 5853 5853 5852 5853
5883 5882 5882 5882 5881 5879 5878 5877 5876 5875 5873 5871 5870 5868 5865 5863 5861 5859 5857 5856 5854 5853 5853 5852 5852 5852 5852 5853 5853 5854 5854 5854 5854 5853 5853 5852 5851 5850 5849 5849 5848 5848 5848
5875 5875 5875 5874 5874 5873 5872 5871 5869 5868 5866 5864 5863 5861 5859 5857 5855 5853 5851 5849 5848 5846 5846 5846 5845 5845 5845 5846 5847 5847 5848 5848 5848 5848 5848 5847 5847 5846 5845 5844 5843 5843 5843
5867 5867 5867 5866 5866 5865 5864 5863 5861 5860 5858 5856 5855 5854 5853 5850 5848 5846 5844 5842 5841 5839 5839 5838 5838 5838 5838 5839 5840 5841 5841 5842 5842 5842 5842 5842 5841 5840 5839 5839 5838 5838 5837
5857 5857 5857 5857 5857 5857 5856 5855 5853 5852 5850 5848 5846 5845 5845 5844 5840 5838 5836 5834 5833 5832 5831 5831 5831 5831 5831 5832 5833 5833 5834 5835 5836 5836 5836 5836 5835 5834 5834 5833 5832 5832 5832
5847 5847 5847 5848 5848 5848 5847 5846 5845 5843 5842 5839 5836 5834 5834 5834 5832 5830 5827 5825 5824 5824 5823 5823 5823 5823 5823 5824 5825 5826 5827 5828 5829 5829 5829 5829 5829 5828 5827 5827 5826 5826 5826
5837 5837 5838 5838 5839 5839 5839 5838 5836 5834 5832 5831 5828 5825 5823 5821 5821 5821 5818 5816 5814 5814 5814 5815 5815 5815 5815 5816 5816 5817 5818 5820 5821 5822 5822 5822 5822 5821 5821 5821 5820 5820 5820
5828 5829 5830 5830 5830 5830 5830 5828 5827 5825 5823 5821 5818 5816 5813 5811 5809 5809 5810 5807 5805 5804 5805 5806 5806 5806 5807 5807 5808 5809 5810 5811 5812 5814 5814 5815 5814 5814 5814 5814 5814 5814 5814
5821 5822 5822 5822 5822 5821 5820 5819 5817 5815 5813 5811 5808 5806 5804 5802 5800 5799 5799 5799 5797 5796 5795 5796 5797 5797 5798 5798 5799 5800 5801 5802 5804 5805 5806 5807 5807 5807 5807 5807 5807 5807 5808
5812 5813 5814 5813 5813 5812 5811 5810 5808 5806 5804 5801 5799 5797 5795 5793 5791 5790 5789 5789 5788 5787 5787 5787 5787 5788 5788 5789 5789 5790 5791 5793 5794 5796 5797 5798 5799 5799 5800 5800 5801 5801 5801
5804 5805 5805 5804 5804 5803 5802 5800 5799 5796 5794 5792 5790 5788 5786 5784 5783 5781 5780 5779 5779 5779 5778 5778 5778 5778 5779 5779 5780 5780 5781 5782 5784 5786 5787 5789 5790 5791 5792 5793 5794 5794 5795
5795 5795 5795 5795 5794 5793 5792 5791 5789 5788 5786 5784 5782 5781 5779 5777 5776 5774 5772 5771 5770 5769 5769 5768 5768 5768 5769 5769 5770 5771 5771 5772 5774 5776 5778 5780 5781 5783 5784 5785 5786 5787 5788
5785 5785 5785 5785 5784 5784 5783 5782 5781 5779 5778 5776 5775 5773 5772 5770 5769 5767 5765 5763 5762 5761 5760 5759 5758 5759 5759 5760 5760 5761 5762 5763 5764 5766 5768 5771 5773 5775 5776 5778 5779 5780 5781
5774 5775 5775 5775 5775 5774 5774 5773 5772 5771 5770 5769 5767 5766 5765 5763 5762 5760 5759 5757 5755 5754 5753 5751 5750 5750 5750 5750 5751 5752 5753 5754 5756 5757 5760 5762 5764 5766 5768 5770 5772 5773 5775
5764 5765 5765 5765 5765 5765 5765 5764 5764 5763 5762 5760 5759 5758 5757 5756 5755 5754 5752 5751 5749 5748 5747 5745 5744 5743 5742 5743 5743 5744 5745 5746 5748 5749 5751 5753 5756 5758 5760 5763 5765 5766 5768
5755 5756 5756 5756 5756 5756 5756 5755 5755 5754 5753 5752 5751 5750 5749 5748 5747 5746 5745 5743 5742 5741 5740 5739 5738 5737 5736 5736 5736 5737 5738 5739 5741 5742 5744 5746 5748 5751 5753 5755 5758 5759 5761
5746 5747 5748 5748 5748 5748 5747 5746 5746 5745 5744 5743 5742 5742 5740 5740 5739 5737 5736 5736 5735 5734 5734 5733 5732 5731 5731 5731 5731 5731 5732 5733 5734 5736 5737 5739 5742 5744 5746 5748 5751 5752 5754
5738 5739 5739 5739 5739 5739 5739 5738 5737 5737 5736 5735 5734 5733 5731 5731 5730 5729 5728 5727 5726 5726 5725 5725 5725 5725 5725 5725 5725 5726 5726 5727 5728 5729 5731 5733 5735 5737 5739 5741 5743 5745 5747
5730 5730 5731 5731 5731 5731 5731 5730 5729 5729 5727 5726 5725 5724 5722 5721 5720 5719 5718 5717 5717 5716 5716 5716 5716 5717 5717 5718 5718 5719 5719 5720 5722 5723 5724 5726 5728 5730 5732 5734 5736 5738 5741
5722 5722 5723 5723 5723 5723 5723 5722 5721 5721 5719 5718 5716 5715 5713 5712 5710 5709 5708 5707 5706 5706 5706 5706 5706 5707 5708 5709 5710 5711 5712 5713 5714 5715 5717 5718 5720 5722 5724 5726 5728 5731 5733
5715 5715 5716 5716 5716 5716 5715 5715 5714 5713 5711 5709 5708 5706 5704 5702 5701 5699 5697 5696 5696 5695 5695 5695 5695 5696 5697 5698 5700 5701 5703 5704 5706 5707 5709 5710 5711 5713 5715 5717 5720 5723 5725
5708 5709 5709 5710 5710 5709 5709 5708 5707 5705 5703 5702 5700 5698 5696 5694 5692 5689 5688 5686 5685 5684 5683 5683 5683 5684 5685 5687 5688 5690 5692 5695 5696 5698 5699 5701 5702 5703 5705 5708 5710 5714 5717
5703 5704 5704 5705 5704 5704 5703 5702 5700 5699 5697 5695 5693 5690 5688 5685 5683 5680 5678 5676 5675 5673 5673 5672 5672 5672 5673 5674 5676 5679 5681 5683 5686 5688 5689 5691 5693 5693 5696 5698 5701 5704 5707
Wind_Speed
15 14 14 15 15 14 14 14 15 16 16 17 17 18 19 19 20 21 21 21 21 19 19 19 18 18 17 16 16 16 15 14 14 14 13 14 14 15 15 17 17 18 19
17 16 16 15 15 15 15 15 16 17 18 18 19 20 21 21 21 22 22 23 23 22 21 21 20 19 19 18 17 16 16 15 15 14 14 14 15 15 16 17 18 19 20
19 18 17 17 17 17 17 18 18 19 20 20 22 22 23 23 23 23 23 24 25 25 24 23 22 22 21 20 19 18 17 16 16 15 15 15 16 16 17 17 18 19 20
22 20 19 19 19 19 20 21 21 22 23 23 24 25 26 26 25 25 25 25 26 26 26 26 25 24 24 23 22 20 19 18 18 17 17 17 17 17 18 18 19 20 21
24 23 22 22 21 22 23 24 24 25 25 26 26 27 28 29 28 28 27 27 27 28 28 27 27 27 26 25 24 23 22 21 20 19 19 18 18 18 19 19 20 21 22
28 26 25 24 24 25 26 27 27 28 28 29 30 30 31 32 31 31 30 29 29 29 29 29 29 29 28 27 27 26 24 23 22 21 21 20 20 20 20 20 21 22 23
31 29 28 27 26 27 29 30 30 31 32 33 34 34 33 34 34 34 33 32 31 31 30 30 29 30 30 29 29 28 26 26 25 24 23 22 21 21 21 21 22 22 23
33 30 29 28 28 29 30 31 32 33 34 37 38 38 36 35 37 37 36 34 33 33 32 31 30 30 30 30 30 30 29 28 27 26 25 25 24 23 22 22 23 23 23
35 31 30 29 29 30 30 32 34 35 36 38 40 41 40 37 37 37 38 37 36 35 34 33 32 31 31 32 32 32 31 30 29 28 27 27 26 24 24 23 23 23 23
33 30 28 27 28 29 31 33 35 37 38 39 40 41 42 41 39 36 37 38 37 36 35 35 34 33 32 32 32 33 33 32 31 30 29 29 27 25 24 24 24 23 24
29 28 27 28 29 31 32 34 37 38 39 40 40 40 40 40 39 38 35 36 37 37 36 35 34 34 34 34 34 35 34 34 33 32 31 29 28 26 25 24 24 23 24
29 29 29 31 32 34 35 37 38 39 40 40 39 39 39 38 38 37 35 33 34 36 36 35 34 35 36 36 36 37 36 35 34 33 32 31 29 27 25 25 24 24 24
30 31 33 34 35 37 38 38 39 39 38 38 37 36 36 35 35 34 34 33 33 34 36 36 35 35 36 37 37 38 38 38 36 35 34 32 30 28 26 26 25 24 25
34 35 37 38 38 39 39 39 38 37 35 35 34 33 32 32 31 31 32 32 32 33 35 36 37 36 36 37 38 38 38 38 38 37 35 33 30 29 27 27 26 25 25
37 37 38 39 39 39 38 37 35 34 32 31 30 30 29 29 29 29 29 30 30 31 32 34 35 36 37 37 37 38 39 37 37 36 35 33 30 29 28 27 26 26 25
39 39 39 39 38 37 36 34 32 31 30 29 29 28 27 27 27 27 27 28 29 29 30 32 33 33 34 35 35 35 36 35 35 35 34 32 30 28 28 27 26 26 25
39 38 37 36 35 34 33 32 31 30 29 29 28 28 28 27 27 27 26 27 26 27 28 30 31 32 32 31 32 32 31 31 32 32 33 32 30 28 27 26 25 25 25
36 35 34 34 33 32 32 31 30 30 29 29 29 29 29 29 28 28 27 27 26 26 26 26 27 27 27 28 29 29 28 28 29 30 29 29 28 26 25 25 24 24 24
33 33 32 32 31 31 31 30 30 30 30 30 30 30 31 31 30 30 29 29 28 27 25 24 24 24 23 24 25 25 25 25 25 26 26 26 26 25 24 24 23 23 23
30 30 31 30 30 30 30 30 30 30 30 31 31 31 32 32 32 32 32 31 31 30 28 26 25 24 23 23 22 23 23 23 24 24 24 24 25 25 24 23 22 22 22
28 29 29 29 29 30 30 30 30 31 31 32 32 33 33 34 34 34 34 34 34 33 32 30 29 28 26 25 24 24 24 24 24 24 23 24 24 24 24 23 22 22 22
28 29 29 29 29 29 30 30 31 31 32 32 33 33 33 34 35 35 35 36 36 36 36 34 33 31 30 29 28 27 26 25 25 24 24 24 25 24 24 24 24 23 22
28 28 28 28 28 28 29 29 30 31 31 32 32 33 33 34 34 35 35 36 37 37 38 38 37 36 34 33 32 31 30 28 28 27 27 26 27 26 26 26 25 25 24
26 26 26 26 26 26 27 27 28 29 29 29 30 30 31 32 33 34 34 35 36 37 38 39 39 39 38 37 35 34 33 31 31 30 29 29 29 29 29 28 28 26 25
23 22 22 22 22 22 23 24 24 24 24 25 26 28 29 30 31 32 33 33 34 35 36 38 39 40 40 40 39 38 37 35 34 34 33 31 31 31 30 29 29 28 27
18 18 18 18 19 19 20 20 21 22 23 24 25 26 28 29 30 30 31 32 32 33 34 35 36 38 39 40 40 40 40 39 39 38 36 34 33 32 31 31 30 30 29
Wind_Direction
284 284 283 286 291 298 308 316 320 326 329 330 328 326 322 314 303 297 293 289 287 286 285 283 283 285 286 284 283 284 285 284 283 281 278 276 276 275 274 272 270 268 267
284 286 286 288 292 295 301 306 310 315 318 322 322 320 321 318 310 301 296 291 287 285 283 281 281 282 283 280 277 278 280 281 282 282 281 278 278 277 276 274 271 268 267
282 284 286 287 290 293 297 299 302 305 309 313 316 317 316 315 311 307 301 295 288 284 281 279 278 278 278 276 273 273 274 276 279 282 282 281 279 279 278 275 271 269 268
282 284 285 286 287 289 293 294 295 297 300 304 307 309 310 309 307 303 300 296 290 285 281 278 275 274 273 271 270 270 270 272 275 278 280 281 280 280 279 278 273 269 268
281 282 283 284 285 286 289 289 289 292 294 296 300 302 303 304 303 300 297 293 289 284 280 277 274 273 270 268 267 268 269 271 272 274 277 279 280 280 279 278 275 271 269
278 280 281 282 282 283 284 285 286 288 290 292 295 297 298 298 297 296 294 291 288 283 279 276 274 272 269 267 266 266 267 269 271 272 275 277 279 279 278 276 274 272 271
275 277 280 279 280 280 281 281 283 286 289 290 292 292 293 293 293 292 291 288 285 282 278 275 274 271 269 267 265 263 264 266 269 270 273 275 277 278 276 274 273 272 271
271 273 275 276 278 279 280 281 283 285 287 289 290 290 289 289 289 289 288 285 282 279 276 272 271 270 267 266 264 262 261 264 266 267 271 274 275 275 274 272 271 270 269
267 268 270 273 275 277 279 281 283 286 287 289 290 290 289 287 285 285 284 283 280 276 272 269 268 267 266 264 263 261 261 262 263 266 269 272 272 272 271 269 269 267 267
267 269 272 273 275 277 280 282 285 287 288 289 289 290 289 288 286 282 281 280 278 275 271 267 265 265 264 263 262 261 260 260 262 264 267 270 269 269 267 266 266 265 265
271 274 276 277 278 280 282 284 287 289 290 290 290 289 289 288 286 284 280 277 275 274 271 267 264 263 263 262 261 260 259 259 259 262 265 267 267 266 264 263 263 263 261
272 275 276 277 280 282 285 287 289 290 291 291 291 290 288 287 286 284 282 276 273 271 270 267 264 261 261 261 261 260 259 258 259 260 262 264 265 264 262 261 261 260 259
274 275 276 278 280 283 286 288 290 290 291 291 291 289 288 288 286 284 282 278 272 269 268 266 264 262 261 261 261 260 258 257 258 259 259 261 262 261 261 259 259 259 258
271 274 275 276 279 282 285 288 289 290 290 290 290 289 289 288 287 285 284 281 276 272 268 266 264 264 263 263 263 260 258 257 257 257 257 257 258 259 258 257 258 258 258
270 273 274 275 277 280 283 285 287 287 287 287 287 287 288 288 287 286 285 283 280 276 272 269 266 265 264 265 263 261 258 255 255 254 252 252 254 255 255 255 256 255 255
268 271 273 274 276 278 281 282 283 283 283 283 284 284 284 285 286 287 285 285 282 279 277 273 271 269 266 264 263 261 258 255 253 250 249 249 250 251 252 254 254 253 253
268 270 271 272 274 276 277 278 279 279 280 280 280 280 281 282 283 286 287 285 284 283 282 277 275 270 265 263 264 262 258 254 251 249 246 246 246 247 249 251 252 250 251
265 267 270 272 273 274 275 276 276 277 277 277 277 277 277 278 279 282 284 286 287 286 284 281 277 272 265 261 260 259 255 251 250 248 245 244 244 245 246 249 249 249 248
263 266 269 270 271 272 274 275 275 275 275 276 276 276 276 276 276 277 279 280 282 283 283 283 279 275 270 265 260 255 251 250 249 247 244 243 243 243 243 243 245 245 245
263 265 267 269 270 272 274 275 275 275 275 276 276 276 277 276 275 275 275 275 276 277 277 278 277 275 271 267 265 258 253 253 251 249 246 245 244 242 241 240 241 240 240
262 264 266 268 270 273 274 275 275 276 276 276 276 276 276 276 276 275 274 273 273 273 272 272 272 271 268 266 264 262 260 258 256 253 249 246 244 242 241 239 239 239 238
263 266 268 269 272 274 275 276 277 278 278 279 279 279 279 278 276 275 273 272 271 270 270 269 267 266 265 264 262 261 259 258 257 255 254 251 247 245 242 242 239 237 236
266 267 269 271 274 276 277 278 280 281 282 283 282 282 282 281 279 278 276 273 270 269 268 267 265 263 262 260 259 258 257 256 256 254 255 255 253 251 250 245 241 239 239
267 269 270 274 276 279 281 282 284 285 286 286 286 286 286 285 284 282 279 277 273 270 268 266 264 262 261 259 258 256 255 254 254 253 253 253 251 252 250 246 240 240 240
269 271 274 276 279 281 284 287 290 291 291 292 292 291 290 289 288 287 285 282 278 275 270 267 264 262 260 259 256 254 252 251 250 248 249 250 252 249 246 243 239 239 239
268 271 275 278 281 285 288 291 294 296 297 298 297 296 295 294 292 290 288 285 282 279 275 271 268 265 262 259 257 254 252 249 247 246 245 247 249 248 245 242 240 239 239